TimeCDT,TemperatureF,Dew PointF,Humidity,Sea Level PressureIn,VisibilityMPH,Wind Direction,Wind SpeedMPH,Gust SpeedMPH,PrecipitationIn,Events,Conditions,WindDirDegrees,DateUTC
12:53 AM,72.0,66.9,84,30.01,9.0,Calm,Calm,-,N/A,,Clear,0,2013-08-18 05:53:00
1:53 AM,71.1,66.9,87,30.00,8.0,Calm,Calm,-,N/A,,Clear,0,2013-08-18 06:53:00
2:10 AM,71.6,66.2,83,30.02,8.0,Calm,Calm,-,N/A,,Scattered Clouds,0,2013-08-18 07:10:00
2:20 AM,71.6,66.2,83,30.02,8.0,NE,4.6,-,N/A,,Mostly Cloudy,40,2013-08-18 07:20:00
2:53 AM,71.1,66.9,87,30.00,7.0,Variable,3.5,-,N/A,,Overcast,0,2013-08-18 07:53:00
3:53 AM,71.1,66.9,87,30.00,10.0,ENE,4.6,-,N/A,,Overcast,60,2013-08-18 08:53:00
4:53 AM,70.0,66.9,90,30.01,10.0,East,5.8,-,N/A,,Overcast,80,2013-08-18 09:53:00
5:53 AM,71.1,66.9,87,30.02,10.0,East,5.8,-,N/A,,Overcast,90,2013-08-18 10:53:00
6:51 AM,71.6,66.2,83,30.06,10.0,East,5.8,-,N/A,,Overcast,80,2013-08-18 11:51:00
6:53 AM,71.1,66.0,84,30.04,10.0,ENE,6.9,-,N/A,,Overcast,70,2013-08-18 11:53:00
7:22 AM,71.6,66.2,83,30.06,10.0,Variable,3.5,-,N/A,,Scattered Clouds,0,2013-08-18 12:22:00
7:53 AM,73.0,66.0,79,30.04,10.0,ENE,8.1,-,N/A,,Partly Cloudy,60,2013-08-18 12:53:00
8:41 AM,73.4,66.2,78,30.06,10.0,North,-9999.0,-,N/A,,Mostly Cloudy,0,2013-08-18 13:41:00
8:53 AM,73.0,66.0,79,30.04,10.0,East,8.1,27.6,N/A,,Mostly Cloudy,90,2013-08-18 13:53:00
9:53 AM,75.0,66.9,76,30.05,10.0,North,-9999.0,-,N/A,,Overcast,0,2013-08-18 14:53:00
10:53 AM,75.9,66.9,74,30.07,10.0,NE,5.8,-,N/A,,Overcast,40,2013-08-18 15:53:00
11:53 AM,79.0,66.9,66,30.06,10.0,NNE,8.1,-,N/A,,Overcast,30,2013-08-18 16:53:00
12:05 PM,80.6,66.2,61,30.08,10.0,Variable,4.6,-,N/A,,Overcast,0,2013-08-18 17:05:00
12:53 PM,80.1,66.9,64,30.04,10.0,East,6.9,-,N/A,,Overcast,80,2013-08-18 17:53:00
1:53 PM,81.0,66.0,60,30.03,10.0,NE,10.4,-,N/A,,Mostly Cloudy,40,2013-08-18 18:53:00
2:53 PM,81.0,66.9,62,30.01,10.0,East,8.1,-,N/A,,Overcast,80,2013-08-18 19:53:00
3:01 PM,80.6,68.0,65,30.03,10.0,Variable,5.8,-,N/A,,Overcast,0,2013-08-18 20:01:00
3:17 PM,80.6,68.0,65,30.03,10.0,ENE,8.1,-,N/A,,Overcast,70,2013-08-18 20:17:00
3:53 PM,79.0,69.1,72,30.00,10.0,Variable,5.8,-,N/A,,Overcast,0,2013-08-18 20:53:00
4:45 PM,77.0,69.8,78,30.03,7.0,East,9.2,17.3,N/A,,Overcast,90,2013-08-18 21:45:00
4:53 PM,77.0,69.1,76,30.00,8.0,East,6.9,-,N/A,,Overcast,90,2013-08-18 21:53:00
5:02 PM,77.0,69.8,78,30.03,8.0,East,9.2,-,N/A,,Overcast,80,2013-08-18 22:02:00
5:19 PM,77.0,69.8,78,30.03,10.0,ENE,6.9,-,N/A,,Overcast,70,2013-08-18 22:19:00
5:28 PM,78.8,69.8,74,30.02,10.0,East,5.8,-,N/A,,Overcast,80,2013-08-18 22:28:00
5:53 PM,79.0,70.0,74,30.00,10.0,East,6.9,-,N/A,,Overcast,90,2013-08-18 22:53:00
6:53 PM,78.1,69.1,74,29.99,10.0,East,5.8,-,N/A,,Overcast,80,2013-08-18 23:53:00
7:53 PM,75.9,69.1,79,30.00,10.0,East,6.9,-,N/A,,Overcast,90,2013-08-19 00:53:00
8:53 PM,75.0,69.1,82,30.02,10.0,ENE,8.1,-,N/A,,Scattered Clouds,70,2013-08-19 01:53:00
9:27 PM,75.2,69.8,83,30.04,10.0,East,6.9,-,N/A,,Mostly Cloudy,80,2013-08-19 02:27:00
9:53 PM,75.0,69.1,82,30.03,10.0,East,6.9,-,N/A,,Overcast,80,2013-08-19 02:53:00
10:02 PM,73.4,69.8,88,30.05,10.0,ENE,4.6,-,N/A,,Overcast,60,2013-08-19 03:02:00
10:53 PM,73.9,69.1,85,30.03,10.0,ENE,4.6,-,N/A,,Overcast,60,2013-08-19 03:53:00
11:20 PM,75.2,69.8,83,30.05,10.0,ENE,4.6,-,N/A,,Overcast,60,2013-08-19 04:20:00
11:53 PM,75.0,69.1,82,30.03,10.0,ENE,5.8,-,N/A,,Overcast,70,2013-08-19 04:53:00